| time (UTC) | temp C | wind direction | speed KPH | gust KPH | rain 1hr cm | rain 24hr cm | rain mn cm | humidity % | barometer mb |
| 20260902044535 | 30 | 200 | 1.6 | 6.4 | 0.00 | 0.03 | 0.03 | 73 | 1013.6 |
| 20260902043015 | 30 | 200 | 4.8 | 8.0 | 0.00 | 0.03 | 0.03 | 73 | 1013.5 |
| 20260902041517 | 30 | 199 | 3.2 | 8.0 | 0.00 | 0.03 | 0.03 | 73 | 1013.4 |
| 20260902040013 | 30 | 192 | 3.2 | 8.0 | 0.00 | 0.03 | 0.03 | 73 | 1013.3 |
| 20260902034511 | 30 | 190 | 1.6 | 8.0 | 0.00 | 0.03 | 0.03 | 73 | 1013.1 |
| 20260902033010 | 30 | 190 | 3.2 | 9.7 | 0.00 | 0.03 | 0.03 | 73 | 1012.8 |
| 20260902031517 | 30 | 193 | 4.8 | 11.3 | 0.00 | 0.03 | 0.03 | 72 | 1012.4 |
| 20260902030009 | 30 | 200 | 3.2 | 11.3 | 0.00 | 0.03 | 0.03 | 72 | 1012.2 |
| 20260902024508 | 30 | 190 | 6.4 | 11.3 | 0.00 | 0.03 | 0.03 | 72 | 1012.0 |
| 20260902023008 | 30 | 184 | 6.4 | 16.1 | 0.00 | 0.03 | 0.03 | 72 | 1011.6 |
| 20260902021510 | 31 | 188 | 4.8 | 16.1 | 0.00 | 0.03 | 0.03 | 71 | 1011.3 |
| 20260902020009 | 31 | 164 | 8.0 | 16.1 | 0.00 | 0.03 | 0.03 | 70 | 1011.2 |
| 20260902014521 | 31 | 182 | 4.8 | 16.1 | 0.00 | 0.03 | 0.03 | 68 | 1011.3 |
| 20260902013004 | 31 | 185 | 8.0 | 12.9 | 0.00 | 0.03 | 0.03 | 66 | 1011.1 |
| 20260902011505 | 32 | 158 | 6.4 | 19.3 | 0.00 | 0.03 | 0.03 | 64 | 1011.1 |
| 20260902010005 | 32 | 156 | 8.0 | 16.1 | 0.00 | 0.03 | 0.03 | 60 | 1010.9 |
| 20260902004502 | 32 | 193 | 4.8 | 11.3 | 0.00 | 0.03 | 0.03 | 59 | 1010.8 |
| 20260902003005 | 32 | 193 | 6.4 | 19.3 | 0.00 | 0.03 | 0.03 | 60 | 1010.6 |
| 20260902001502 | 33 | 154 | 9.7 | 19.3 | 0.00 | 0.03 | 0.03 | 58 | 1010.4 |
| 20260902000101 | 33 | 132 | 8.0 | 19.3 | 0.00 | 0.03 | 0.03 | 58 | 1010.3 |
| 20260901234501 | 33 | 138 | 11.3 | 19.3 | 0.00 | 0.03 | 0.03 | 57 | 1010.3 |
| 20260901233104 | 34 | 161 | 9.7 | 22.5 | 0.00 | 0.03 | 0.03 | 56 | 1010.1 |
| 20260901231602 | 35 | 164 | 11.3 | 22.5 | 0.00 | 0.03 | 0.03 | 56 | 1010.0 |
| 20260901224557 | 34 | 146 | 11.3 | 20.9 | 0.00 | 0.03 | 0.03 | 55 | 1009.9 |
| 20260901223105 | 35 | 138 | 9.7 | 20.9 | 0.00 | 0.03 | 0.03 | 57 | 1010.0 |
| 20260901221612 | 35 | 140 | 11.3 | 20.9 | 0.00 | 0.03 | 0.03 | 58 | 1010.1 |
| 20260901220053 | 35 | 176 | 11.3 | 25.7 | 0.00 | 0.03 | 0.03 | 59 | 1010.1 |
| 20260901214551 | 35 | 150 | 11.3 | 25.7 | 0.00 | 0.18 | 0.03 | 58 | 1010.2 |
| 20260901213102 | 35 | 173 | 12.9 | 25.7 | 0.00 | 0.18 | 0.03 | 57 | 1010.4 |
| 20260901211548 | 35 | 161 | 9.7 | 25.7 | 0.00 | 0.18 | 0.03 | 59 | 1010.6 |
| 20260901210047 | 35 | 182 | 12.9 | 17.7 | 0.00 | 0.18 | 0.03 | 58 | 1010.7 |
| 20260901204547 | 35 | 156 | 11.3 | 20.9 | 0.00 | 0.61 | 0.03 | 61 | 1010.9 |
| 20260901203055 | 34 | 173 | 11.3 | 24.1 | 0.00 | 0.61 | 0.03 | 61 | 1011.1 |
| 20260901201547 | 35 | 146 | 12.9 | 24.1 | 0.00 | 0.61 | 0.03 | 62 | 1011.3 |
| 20260901200036 | 34 | 150 | 6.4 | 24.1 | 0.00 | 0.61 | 0.03 | 62 | 1011.4 |
| 20260901194533 | 34 | 146 | 9.7 | 22.5 | 0.00 | 0.61 | 0.03 | 62 | 1011.5 |
| 20260901193032 | 34 | 129 | 9.7 | 22.5 | 0.00 | 0.61 | 0.03 | 63 | 1011.8 |
| 20260901191527 | 34 | 169 | 9.7 | 19.3 | 0.00 | 0.61 | 0.03 | 63 | 1012.0 |
| 20260901190027 | 33 | 161 | 11.3 | 22.5 | 0.00 | 0.61 | 0.03 | 64 | 1012.3 |
| 20260901184521 | 33 | 145 | 12.9 | 22.5 | 0.00 | 0.61 | 0.03 | 64 | 1012.5 |
| 20260901183019 | 33 | 162 | 11.3 | 22.5 | 0.00 | 0.61 | 0.03 | 64 | 1012.6 |
| 20260901181518 | 33 | 136 | 12.9 | 25.7 | 0.00 | 0.61 | 0.03 | 65 | 1012.6 |
| 20260901180009 | 33 | 150 | 12.9 | 24.1 | 0.00 | 0.61 | 0.03 | 67 | 1012.7 |
| 20260901174509 | 33 | 150 | 11.3 | 19.3 | 0.00 | 0.61 | 0.03 | 66 | 1012.9 |
| 20260901173101 | 33 | 125 | 4.8 | 12.9 | 0.00 | 0.61 | 0.03 | 67 | 1012.7 |
| 20260901171605 | 33 | 136 | 3.2 | 11.3 | 0.00 | 0.61 | 0.03 | 64 | 1012.7 |
| 20260901170054 | 33 | 133 | 6.4 | 14.5 | 0.00 | 0.61 | 0.03 | 63 | 1012.6 |
| 20260901164550 | 33 | 127 | 4.8 | 12.9 | 0.00 | 0.61 | 0.03 | 67 | 1012.7 |
| 20260901163049 | 32 | 57 | 4.8 | 8.0 | 0.00 | 0.61 | 0.03 | 68 | 1012.8 |
| 20260901161546 | 30 | 54 | 1.6 | 4.8 | 0.00 | 0.61 | 0.03 | 67 | 1012.7 |
| 20260901160049 | 29 | 54 | 0.0 | 4.8 | 0.00 | 0.61 | 0.03 | 70 | 1012.7 |
| 20260901154534 | 28 | 47 | 1.6 | 3.2 | 0.00 | 0.61 | 0.03 | 75 | 1012.8 |
| 20260901153032 | 27 | 47 | 0.0 | 3.2 | 0.00 | 0.61 | 0.03 | 78 | 1012.8 |
| 20260901151525 | 26 | 47 | 1.6 | 4.8 | 0.00 | 0.61 | 0.03 | 80 | 1012.6 |
| 20260901150024 | 26 | 47 | 1.6 | 4.8 | 0.00 | 0.61 | 0.03 | 83 | 1012.4 |
| 20260901144520 | 26 | 47 | 0.0 | 4.8 | 0.00 | 0.61 | 0.03 | 85 | 1012.4 |
| 20260901143020 | 25 | 47 | 1.6 | 6.4 | 0.03 | 0.61 | 0.03 | 86 | 1012.2 |
| 20260901141519 | 25 | 74 | 1.6 | 4.8 | 0.03 | 0.61 | 0.03 | 88 | 1012.2 |
| 20260901140018 | 25 | 315 | 0.0 | 4.8 | 0.03 | 0.61 | 0.03 | 88 | 1011.9 |
| 20260901134531 | 25 | 315 | 1.6 | 4.8 | 0.03 | 0.61 | 0.03 | 87 | 1011.7 |
| 20260901133018 | 25 | 315 | 1.6 | 4.8 | 0.00 | 0.58 | 0.00 | 87 | 1011.7 |
| 20260901131517 | 25 | 315 | 1.6 | 4.8 | 0.00 | 0.58 | 0.00 | 87 | 1011.6 |
| 20260901130015 | 25 | 315 | 0.0 | 6.4 | 0.00 | 0.58 | 0.00 | 87 | 1011.7 |
| 20260901124519 | 25 | 315 | 0.0 | 6.4 | 0.00 | 0.58 | 0.00 | 87 | 1011.5 |
| 20260901123015 | 25 | 315 | 3.2 | 8.0 | 0.00 | 0.58 | 0.00 | 87 | 1011.5 |
| 20260901121515 | 25 | 315 | 1.6 | 8.0 | 0.00 | 0.58 | 0.00 | 87 | 1011.5 |
| 20260901120012 | 25 | 315 | 0.0 | 4.8 | 0.00 | 0.58 | 0.00 | 87 | 1011.3 |
| 20260901114511 | 25 | 314 | 0.0 | 3.2 | 0.00 | 0.58 | 0.00 | 87 | 1011.2 |
| 20260901113016 | 25 | 315 | 1.6 | 6.4 | 0.00 | 0.58 | 0.00 | 87 | 1011.2 |
| 20260901111510 | 25 | 315 | 1.6 | 4.8 | 0.00 | 0.58 | 0.00 | 87 | 1011.1 |
| 20260901110010 | 25 | 315 | 0.0 | 4.8 | 0.00 | 0.58 | 0.00 | 87 | 1011.2 |
| 20260901104509 | 25 | 314 | 1.6 | 6.4 | 0.00 | 0.58 | 0.00 | 87 | 1011.1 |
| 20260901103008 | 25 | 315 | 0.0 | 4.8 | 0.00 | 0.58 | 0.00 | 87 | 1011.3 |
| 20260901101507 | 25 | 315 | 0.0 | 3.2 | 0.00 | 0.58 | 0.00 | 87 | 1011.1 |
| 20260901100007 | 25 | 315 | 0.0 | 3.2 | 0.00 | 0.58 | 0.00 | 86 | 1011.5 |
| 20260901094503 | 25 | 315 | 0.0 | 4.8 | 0.00 | 0.58 | 0.00 | 86 | 1011.5 |
| 20260901093124 | 25 | 314 | 3.2 | 6.4 | 0.00 | 0.58 | 0.00 | 86 | 1011.6 |
| 20260901091559 | 25 | 315 | 1.6 | 3.2 | 0.00 | 0.58 | 0.00 | 87 | 1011.7 |
| 20260901084559 | 25 | 315 | 1.6 | 8.0 | 0.00 | 0.58 | 0.00 | 86 | 1011.7 |
| 20260901083053 | 26 | 315 | 1.6 | 6.4 | 0.00 | 0.58 | 0.00 | 86 | 1011.8 |
| 20260901081557 | 26 | 315 | 0.0 | 6.4 | 0.00 | 0.58 | 0.00 | 86 | 1011.9 |
| 20260901080050 | 26 | 314 | 1.6 | 3.2 | 0.00 | 0.58 | 0.00 | 85 | 1012.1 |
| 20260901074547 | 26 | 315 | 0.0 | 3.2 | 0.00 | 0.58 | 0.00 | 85 | 1012.2 |
| 20260901073050 | 26 | 315 | 1.6 | 3.2 | 0.00 | 0.58 | 0.00 | 85 | 1012.3 |
| 20260901071544 | 26 | 315 | 1.6 | 6.4 | 0.00 | 0.58 | 0.00 | 85 | 1012.4 |
| 20260901070053 | 26 | 315 | 1.6 | 6.4 | 0.00 | 0.58 | 0.00 | 86 | 1012.4 |
| 20260901064539 | 26 | 315 | 1.6 | 6.4 | 0.00 | 0.58 | 0.58 | 86 | 1012.5 |
| 20260901063045 | 26 | 315 | 1.6 | 4.8 | 0.00 | 0.58 | 0.58 | 86 | 1012.5 |
| 20260901061538 | 26 | 315 | 1.6 | 6.4 | 0.00 | 0.58 | 0.58 | 86 | 1012.5 |
| 20260901060041 | 26 | 315 | 0.0 | 6.4 | 0.00 | 0.58 | 0.58 | 85 | 1012.2 |
| 20260901054536 | 26 | 315 | 1.6 | 6.4 | 0.00 | 0.58 | 0.58 | 85 | 1012.2 |
| 20260901053101 | 26 | 315 | 0.0 | 4.8 | 0.00 | 0.58 | 0.58 | 85 | 1012.2 |
| 20260901051536 | 27 | 314 | 1.6 | 4.8 | 0.00 | 0.58 | 0.58 | 85 | 1012.2 |
| 20260901050035 | 27 | 314 | 1.6 | 4.8 | 0.00 | 0.58 | 0.58 | 84 | 1012.2 |